Baku airport (UBBB)

baku-airport

Baku International Airport

Heydar Aliyev International Airport is the main international airport in Azerbaijan located 20 km (12 mi) northeast of the capital Baku. The airport is the home of Azerbaijan Airlines, the national flag carrier. It is the busiest airport in Azerbaijan and of the Caucasus.

ICAO: UBBB, IATA: GYD

Charts: Jeppesen

Sceneries: freeware demos w. reduced resolution

 fs9     fsx     Prepar

payware: http://www.drzewiecki-design.net/

METAR:

UBBB 241930Z 20006KT 9999 FEW021 18/17 Q1019 R88/CLRD// NOSIG

TAF TAF UBBB 241708Z 2418/2518 20010KT 8000 SCT010 TX23/2510Z TN14/2501Z TEMPO 2418/2421 SCT006 TEMPO 2421/2503 4000 BR BKN005 BECMG 2503/2505 19014KT SCT018 TEMPO 2510/2516 18010KT